Tracking 31027 objects as of 19-Jul-2025
HD Live streaming from Space Station
objects crossing your sky now

ION SCV-016

Track ION SCV-016 now!
10-day predictions


NORAD ID: 62628
Int'l Code: 2025-009V
Perigee: 314.7 km
Apogee: 1,199.2 km
Inclination: 97.5 °
Period: 99.8 minutes
Semi major axis: 7127 km
RCS: Unknown
Launch date: January 14, 2025
Source: Italy (IT)
Launch site: AIR FORCE WESTERN TEST RANGE (AFWTR)
Your satellite tracking list
Your tracking list is empty




NASA's NSSDC Master Catalog

Two Line Element Set (TLE):
1 62628U 25009V   25199.45955492  .00021289  00000-0  48630-3 0  9995
2 62628  97.4859 270.9020 0620465  69.3082 297.3475 14.42624815 27350
Source of the keplerian elements: AFSPC